Date String (YYYY-MM-DD hh:mm:ss) UTC,Instrument flags,absolute air pressure of the measurement (hPa),sample flow rate (lpm),inlet stack bypass flow (lpm),air temperature of the measurement (°C),ambient temperature measured by the external sensor (°C),aerosol sample conditioner tube jacket temperature (°C),OPC LED temperature (°C),internal box temperature (°C),relative humidity of the measurement (%),span deviation,mass concentration of particles derived from Lorenz-Mie calculation of OPC scattering (μg/m³),mass concentration of particles derived from Lorenz-Mie calculation of OPC scattering (μg/m³),mass concentration of particles derived from Lorenz-Mie calculation of OPC scattering (μg/m³)
DateTimeUTC,F1_M11,P_M11,Q1_M11,Q2_M11,T1_M11,T2_M11,T3_M11,T4_M11,T5_M11,U1_M11,ZSPAN_M11,X0_M11,X2_M11,X1_M11
2024-06-01 17:00:00,SystemResetWarning,0828.6,5.00,000.00,029.8,029.3,000.0,038.0,031.6,021.3,0000.0,0017.79,0005.33,0004.31
2024-06-01 17:01:00,SystemResetWarning,0828.6,5.00,000.00,029.9,029.4,000.0,038.0,031.7,022.1,0000.0,0017.00,0005.27,0004.27
2024-06-01 17:02:00,SystemResetWarning,0828.5,5.00,000.00,029.9,029.5,000.0,038.1,031.7,022.2,0000.0,0016.33,0005.21,0004.24
2024-06-01 17:03:00,SystemResetWarning,0828.5,5.00,000.00,030.0,029.5,000.0,038.1,031.7,022.5,0000.0,0016.26,0005.17,0004.20
2024-06-01 17:04:00,SystemResetWarning,0828.5,5.01,000.00,030.0,029.6,000.0,038.1,031.8,022.8,0000.0,0015.39,0005.11,0004.17
2024-06-01 17:05:00,SystemResetWarning,0828.5,5.00,000.00,030.1,029.2,000.0,038.2,031.6,022.0,0000.0,0014.89,0005.08,0004.14
2024-06-01 17:06:00,SystemResetWarning,0828.4,4.98,000.00,029.8,027.2,000.0,038.3,030.6,022.7,0000.0,0014.83,0005.04,0004.10
2024-06-01 17:07:00,SystemResetWarning,0828.4,5.02,000.00,029.4,025.8,000.0,038.3,030.0,022.9,0000.0,0014.27,0004.99,0004.07
2024-06-01 17:08:00,SystemResetWarning,0828.4,5.01,000.00,029.2,026.3,000.0,038.2,030.1,023.7,0000.0,0013.91,0004.95,0004.05
2024-06-01 17:09:00,SystemResetWarning,0828.5,4.99,000.00,029.2,026.7,000.0,038.0,030.3,023.2,0000.0,0013.38,0004.90,0004.04
2024-06-01 17:10:00,SystemResetWarning,0828.4,4.99,000.00,029.2,027.1,000.0,037.9,030.5,023.0,0000.0,0012.53,0004.92,0004.04
2024-06-01 17:11:00,SystemResetWarning,0828.4,5.01,000.00,029.2,027.5,000.0,037.9,030.7,022.8,0000.0,0011.39,0004.94,0004.04
2024-06-01 17:12:00,SystemResetWarning,0828.4,5.01,000.00,029.3,027.9,000.0,037.8,030.8,023.2,0000.0,0011.71,0004.92,0004.04
2024-06-01 17:13:00,SystemResetWarning,0828.4,5.01,000.00,029.3,028.1,000.0,037.8,030.9,023.6,0000.0,0012.14,0004.91,0004.05
2024-06-01 17:14:00,SystemResetWarning,0828.4,4.99,000.00,029.4,028.4,000.0,037.8,031.0,023.7,0000.0,0012.19,0004.92,0004.05
2024-06-01 17:15:00,SystemResetWarning,0828.4,5.00,000.00,029.4,028.5,000.0,037.8,031.1,023.9,0000.0,0011.59,0004.94,0004.05
2024-06-01 17:16:00,SystemResetWarning,0828.4,5.00,000.00,029.5,028.7,000.0,037.8,031.2,023.1,0000.0,0011.60,0004.95,0004.04
2024-06-01 17:17:00,SystemResetWarning,0828.4,5.00,000.00,029.5,028.9,000.0,037.8,031.3,022.7,0000.0,0011.60,0004.96,0004.04
2024-06-01 17:18:00,SystemResetWarning,0828.4,5.01,000.00,029.6,029.0,000.0,037.8,031.3,022.5,0000.0,0011.41,0004.95,0004.02
2024-06-01 17:19:00,SystemResetWarning,0828.4,5.01,000.00,029.7,029.1,000.0,037.9,031.4,022.6,0000.0,0011.34,0004.92,0004.02
2024-06-01 17:20:00,SystemResetWarning,0828.4,5.00,000.00,029.7,029.2,000.0,037.9,031.5,023.4,0000.0,0011.46,0004.93,0004.02
2024-06-01 17:21:00,SystemResetWarning,0828.4,5.00,000.00,029.8,029.3,000.0,037.9,031.5,023.2,0000.0,0011.42,0004.93,0004.03
2024-06-01 17:22:00,SystemResetWarning,0828.4,5.00,000.00,029.8,029.4,000.0,037.9,031.6,024.0,0000.0,0011.71,0004.95,0004.04
2024-06-01 17:23:00,SystemResetWarning,0828.4,5.00,000.00,029.9,029.4,000.0,038.0,031.7,024.5,0000.0,0011.52,0004.97,0004.06
2024-06-01 17:24:00,SystemResetWarning,0828.4,4.99,000.00,029.9,029.5,000.0,038.0,031.7,023.3,0000.0,0011.26,0004.98,0004.07
2024-06-01 17:25:00,SystemResetWarning,0828.4,4.99,000.00,030.0,029.5,000.0,038.1,031.7,023.4,0000.0,0011.83,0004.98,0004.07
2024-06-01 17:26:00,SystemResetWarning,0828.4,4.99,000.00,029.8,027.8,000.0,038.2,030.8,024.8,0000.0,0012.16,0004.97,0004.09
2024-06-01 17:27:00,SystemResetWarning,0828.3,5.00,000.00,029.4,026.0,000.0,038.2,030.0,024.7,0000.0,0012.25,0005.00,0004.10
2024-06-01 17:28:00,SystemResetWarning,0828.3,5.02,000.00,029.2,026.2,000.0,038.1,030.0,023.9,0000.0,0012.64,0005.01,0004.11
2024-06-01 17:29:00,SystemResetWarning,0828.3,4.99,000.00,029.1,026.7,000.0,038.0,030.2,023.9,0000.0,0012.89,0005.03,0004.12
2024-06-01 17:30:00,SystemResetWarning,0828.3,5.00,000.00,029.1,027.1,000.0,037.9,030.5,024.0,0000.0,0013.31,0005.07,0004.14
2024-06-01 17:31:00,SystemResetWarning,0828.3,5.00,000.00,029.2,027.5,000.0,037.8,030.7,023.5,0000.0,0013.90,0005.10,0004.16
2024-06-01 17:32:00,SystemResetWarning,0828.2,5.00,000.00,029.2,027.9,000.0,037.7,030.8,023.8,0000.0,0014.53,0005.11,0004.17
2024-06-01 17:33:00,SystemResetWarning,0828.3,5.01,000.00,029.3,028.1,000.0,037.7,030.9,024.1,0000.0,0014.41,0005.10,0004.17
2024-06-01 17:34:00,SystemResetWarning,0828.3,5.00,000.00,029.3,028.4,000.0,037.7,031.0,024.7,0000.0,0013.97,0005.10,0004.18
2024-06-01 17:35:00,SystemResetWarning,0828.3,4.99,000.00,029.4,028.6,000.0,037.7,031.1,025.8,0000.0,0014.62,0005.10,0004.18
2024-06-01 17:36:00,SystemResetWarning,0828.3,4.99,000.00,029.5,028.7,000.0,037.7,031.2,022.3,0000.0,0015.40,0005.12,0004.18
2024-06-01 17:37:00,SystemResetWarning,0828.2,5.00,000.00,029.5,028.9,000.0,037.7,031.3,021.7,0000.0,0015.13,0005.11,0004.17
2024-06-01 17:38:00,SystemResetWarning,0828.2,5.00,000.00,029.6,029.0,000.0,037.8,031.3,022.5,0000.0,0015.37,0005.03,0004.13
2024-06-01 17:39:00,SystemResetWarning,0828.2,5.01,000.00,029.6,029.1,000.0,037.8,031.4,024.0,0000.0,0014.74,0005.00,0004.11
2024-06-01 17:40:00,SystemResetWarning,0828.1,5.01,000.00,029.7,029.2,000.0,037.8,031.5,023.5,0000.0,0014.83,0005.01,0004.11
2024-06-01 17:41:00,SystemResetWarning,0828.2,4.99,000.00,029.8,029.3,000.0,037.8,031.6,022.8,0000.0,0015.35,0005.05,0004.10
2024-06-01 17:42:00,SystemResetWarning,0828.2,4.99,000.00,029.8,029.4,000.0,037.9,031.6,023.1,0000.0,0015.27,0005.06,0004.09
2024-06-01 17:43:00,SystemResetWarning,0828.2,5.00,000.00,029.9,029.4,000.0,037.9,031.7,023.1,0000.0,0015.45,0005.05,0004.07
2024-06-01 17:44:00,SystemResetWarning,0828.1,5.00,000.00,029.9,029.1,000.0,038.0,031.5,022.8,0000.0,0015.95,0005.03,0004.06
2024-06-01 17:45:00,SystemResetWarning,0828.1,5.00,000.00,029.6,027.0,000.0,038.1,030.4,021.2,0000.0,0016.93,0005.01,0004.03
2024-06-01 17:46:00,SystemResetWarning,0828.1,5.00,000.00,029.2,025.9,000.0,038.1,029.8,022.1,0000.0,0016.86,0005.00,0003.98
2024-06-01 17:47:00,SystemResetWarning,0828.1,5.01,000.00,029.1,026.4,000.0,038.0,030.0,021.9,0000.0,0015.27,0004.98,0003.95
2024-06-01 17:48:00,SystemResetWarning,0828.0,4.99,000.00,029.1,026.8,000.0,037.8,030.2,021.6,0000.0,0015.85,0004.99,0003.93
2024-06-01 17:49:00,SystemResetWarning,0828.1,5.00,000.00,029.1,027.2,000.0,037.8,030.5,020.8,0000.0,0016.20,0004.99,0003.91
2024-06-01 17:50:00,SystemResetWarning,0828.1,5.01,000.00,029.1,027.6,000.0,037.7,030.7,019.6,0000.0,0016.03,0004.95,0003.88
2024-06-01 17:51:00,SystemResetWarning,0828.1,5.01,000.00,029.2,027.9,000.0,037.7,030.8,019.5,0000.0,0015.42,0004.85,0003.82
2024-06-01 17:52:00,SystemResetWarning,0828.0,4.99,000.00,029.2,028.1,000.0,037.7,030.9,021.4,0000.0,0014.69,0004.73,0003.76
2024-06-01 17:53:00,SystemResetWarning,0828.1,4.99,000.00,029.3,028.4,000.0,037.7,031.0,019.6,0000.0,0014.89,0004.68,0003.71
2024-06-01 17:54:00,SystemResetWarning,0828.0,5.00,000.00,029.4,028.5,000.0,037.7,031.1,018.8,0000.0,0013.94,0004.57,0003.64
2024-06-01 17:55:00,SystemResetWarning,0828.1,5.01,000.00,029.4,028.7,000.0,037.7,031.2,019.5,0000.0,0012.91,0004.46,0003.57
2024-06-01 17:56:00,SystemResetWarning,0828.1,5.01,000.00,029.5,028.8,000.0,037.7,031.3,020.1,0000.0,0012.28,0004.39,0003.53
2024-06-01 17:57:00,SystemResetWarning,0828.1,4.99,000.00,029.5,029.0,000.0,037.7,031.3,019.8,0000.0,0011.69,0004.29,0003.50
2024-06-01 17:58:00,SystemResetWarning,0828.1,5.00,000.00,029.6,029.1,000.0,037.7,031.4,020.7,0000.0,0011.61,0004.23,0003.47
2024-06-01 17:59:00,SystemResetWarning,0828.1,5.02,000.00,029.7,029.2,000.0,037.8,031.5,019.0,0000.0,0011.16,0004.12,0003.43
